User: anonymous   Login
Location: ????????
(56.1167°N, 38.6333°E)
Time: 20:17:44
(UTC+00:00)
Language:

SJ 16-02 - Orbit

View from above orbital plane
View from above orbital plane
View from above satellite
View from above satellite

Ground track
Ground track

The orbit is defined by the following mean orbital elements,

1 41634U          26022.49632242 +.00000000 +00000-0 +20990-3 0 00008
2 41634  75.0019 194.6595 0006827  22.2243 337.9241 14.93034963    00
Epoch (UTC): 22 January 2026 11:54:42
Eccentricity: 0.0006827
inclination: 75.0019°
perigee height: 584 km
apogee height: 593 km
right ascension of ascending node: 194.6595°
argument of perigee: 22.2243°
revolutions per day: 14.93034963
mean anomaly at epoch: 337.9241°

The dashed part of the orbit path shows where the satellite is in the earth's shadow,  

DLR